Location: L�Ave Maria
(50.7161°N, 1.5911°E)
Time: 12:44:46
(UTC+00:00)

BREEZE-M DEB (TANK) - Pass Details

Date: 10 July 2020
Orbit: 328 x 12049 km, 49.6° (Epoch: 06 August)

Event Time Altitude Azimuth Distance (km) Brightness Sun altitude
Rises 23:19:38 0° 284° (WNW) 3,261 6.4 -16.7°
Reaches altitude 10° 23:22:57 10° 270° (W) 1,678 4.7 -16.8°
Enters shadow 23:24:41 19° 243° (WSW) 1,001 3.3 -16.8°
